Regional Weather Roundup
Issued by NWS Charleston, SC

Current Version | Previous Version | Graphics & Text | Print | Product List | Glossary On
Versions: 1 2 3 4 5 6 7 8 9 10 11 12 13 14 15 16 17 18 19 20 21 22 23 24 25 26 27 28 29 30 31 32 33 34 35 36 37 38 39 40 41 42 43 44 45 46 47 48 49 50
777 ASUS42 KCHS 071012 RWRCHS REGIONAL WEATHER ROUNDUP NATIONAL WEATHER SERVICE CHARLESTON SC 500 AM EST SUN FEB 07 2016 NOTE: "FAIR" INDICATES FEW OR NO CLOUDS BELOW 12,000 FEET WITH NO SIGNIFICANT WEATHER AND/OR OBSTRUCTIONS TO VISIBILITY. NOT ALL STATIONS ARE QUALITY CONTROLLED BY THE NATIONAL WEATHER SERVICE. USE DATA WITH CAUTION...ESPECIALLY DEWPOINT OBSERVATIONS. NOTICE: OBSERVATIONS FOR THE SAVANNAH-HILTON HEAD INTERNATIONAL AIRPORT /KSAV/ HAVE BEEN TEMPORARILY REMOVED DUE TO AN ERRONEOUS TEMPERATURE SENSOR. THE OBSERVATION WILL BE REINTRODUCED ONCE REPAIRS ARE COMPLETE. SCZ027-030-031-034>040-042>050-071100- ...SOUTHEAST SOUTH CAROLINA... CITY SKY/WX TMP DP RH WIND PRES REMARKS N CHARLESTON RAIN 40 37 89 N17 29.97F WCI 31 WATERFRONT PRK N/A 40 39 97 N14 29.81F WCI 32 MOUNT PLEASANT CLOUDY 39 37 93 N12G18 29.96F WCI 32 JOHNS ISLAND LGT RAIN 39 39 100 N14G21 29.95F WCI 31 PINOPOLIS N/A N/A N/A N/A N21 29.93F MONCKS CORNER RAIN 36 34 93 N10G21 29.99F WCI 28 SUMMERVILLE LGT RAIN 37 37 100 N15G22 30.01S WCI 28 BEAUFORT MCAS RAIN 40 37 89 N13G24 30.01R WCI 32 BEAUFORT ARPT RAIN 39 37 93 N13 29.99S WCI 32 HILTON HEAD IS RAIN 39 39 100 N17G23 30.00F WCI 30 WALTERBORO DRIZZLE 41 37 87 N10G16 30.03R ALLENDALE CLOUDY 39 36 87 N9G16 30.03F WCI 33 ...SOUTHERN MIDLANDS AND PEE DEE... CITY SKY/WX TMP DP RH WIND PRES REMARKS GEORGETOWN NOT AVBL KINGSTREE NOT AVBL ORANGEBURG LGT RAIN 38 34 85 NE13 30.03F WCI 30 BARNWELL PTSUNNY 39 36 87 N14G22 30.04F WCI 31 AIKEN FAIR 41 25 52 N9 30.09F MANNING LGT RAIN 36 34 93 N12G18 30.02F WCI 27 COLUMBIA CLOUDY 43 25 49 N7 30.06F SUMTER CLOUDY 37 32 81 N13 30.02F WCI 29 FLORENCE LGT RAIN 38 35 89 N15 30.05F WCI 29 MYRTLE BEACH CLOUDY 39 32 75 N13 29.99F WCI 32 N MYRTLE BEACH RAIN 39 36 89 N15G25 29.96F WCI 31 $$ GAZ063-065-086>088-099>101-113>116-118-119-134>141-150-071100- ...SOUTHEAST GEORGIA... CITY SKY/WX TMP DP RH WIND PRES REMARKS SAVANNAH ARPT LGT RAIN 40 36 86 N13 30.02R WCI 32 HUNTER AAF RAIN 39 39 100 N12 29.98F WCI 32 FORT STEWART RAIN 40 37 90 N13G22 30.01R WCI 32 STATESBORO CLOUDY 43 41 92 N9 30.05S SYLVANIA LGT RAIN 40 39 96 N8 30.04F WCI 35 CLAXTON LGT RAIN 41 39 93 NW8G16 30.06S ...CSRA...CENTRAL AND FAR SOUTHEAST GEORGIA... CITY SKY/WX TMP DP RH WIND PRES REMARKS THOMSON CLOUDY 39 30 69 N3 30.14S AUGUSTA-BUSH MOCLDY 42 28 57 N8 30.08F AUGUSTA-DANIEL MOCLDY 42 23 46 N7 30.08F SWAINSBORO FAIR 39 34 81 NW5 30.07F WCI 36 VIDALIA CLOUDY 41 36 81 NW5 30.08R EASTMAN FAIR 38 32 79 CALM 30.12S HAZLEHURST FAIR 41 37 86 CALM 30.07F ALMA CLOUDY 41 37 86 NW7 30.07F WAYCROSS DRIZZLE 43 43 100 N10G16 30.05F JESUP RAIN 43 41 93 N9 30.05F BAXLEY CLOUDY 43 41 93 N6 30.06F BRUNSWICK RAIN 39 37 93 NW7 30.02R WCI 34 SAINT SIMONS LGT RAIN 41 41 100 NW10G22 30.00R FOG $$ SCZ027-028-034-036>038-045-046-048>050-GAZ119-141-071100- ...LAKE AND SUPPLEMENTAL COASTAL OBSERVATIONS... STATION/POSITION TIME TEMP WIND PRES WAVE SWELL AIR SEA DIR/SP/G HT/PER HT/PER/DIR (UTC) (F) (DEG/KT/KT) (MB) (FT/S) (FT/S/D) WINYAH BAY 0845 39 20/ 11 1014.0 LAKE MURRAY 0900 42 350/ 3/ 6 1018.6F ACE BASIN NERRS NOT AVBL FORT PULASKI 0900 41 54 360/ 17/ 23 1014.9F SAPELO ISLAND 0900 42 340/ 11 1015.0S $$ ANZ835-935-AMZ111-154-330-350-352-354-370-450-454-472-071100- ...C-MAN AND BUOY OBSERVATIONS... STATION/POSITION TIME TEMP WIND PRES WAVE SWELL AIR SEA DIR/SP/G HT/PER HT/PER/DIR (UTC) (F) (DEG/KT/KT) (MB) (FT/S) (FT/S/D) BUOY 41004 0950 50 65 10/ 33/ 41 1010.4F 11/ 8 BUOY 41008 0950 45 56 350/ 23/ 29 1013.6R 8/ 8 FOLLY BEACH CMAN 1000 41 360/ 15/ 19 1014.0F CAPERS NEARSHORE 0908 42 20/ 21/ 29 1014.7F FRIPP NEARSHORE 0900 43 20/ 25/ 27 1014.6F STATION/POSITION TIME TEMP WIND PRES WAVE SWELL AIR SEA DIR/SP/G HT/PER HT/PER/DIR (UTC) (F) (DEG/KT/KT) (MB) (FT/S) (FT/S/D) 5E ST. MARYS GA 0951 56 N/A 7/ 8 2/100/11 FRYING PAN BUOY 0900 49 68 10/ 33/ 41 1014.0R BUOY 41025 0950 52 71 20/ 33/ 39 1014.6F 8/ 6 3/110/11 CAPE LOOKOUT NC NOT AVBL BUOY 41002 0950 64 69 100/ 23/ 27 N/A 7/11 5/ 50/11 BUOY 41010 0920 69 74 1005.9F ST AUGUSTINE FL 1000 42 57 300/ 13/ 16 1015.4S $$

USA.gov is the U.S. government's official web portal to all federal, state and local government web resources and services.